Weather in Kishinev

Moldova     47˚01′28″N   28˚49′56″E
temp.,
°C
wind,
m/s
gust,
m/s
humid.,
%
clouds,
%
prec.,
mm/h
давл.,
hPa
HPBL,
m
27 november, fri
fri2723:00+2˚s23620 0.0 102350
02:00+1˚ssw23800 0.0 102322
05:00ssw22840 0.0 102222
08:00wsw11800 0.0 102221
11:00+5˚wnw12560 0.0 1021260
14:00+7˚n12460 0.0 1020406
17:00+4˚n11590 0.0 102022
20:00+3˚nnw226117 0.0 102022
28 november, sat
sat2823:00+2˚nnw226499 0.0 102022
02:00+2˚nnw226899 0.0 102023
05:00n227962 0.0 101921
08:00n118353 0.0 102022
11:00+4˚nne2375100 0.0 1019275
14:00+5˚ne2273100 0.0 1018369
17:00+3˚ne1185100 0.0 101722
20:00+2˚ne1189100 0.0 101822
29 november, sun
sun2923:00+2˚n1190100 0.0 101822
02:00+2˚nnw1190100 0.0 101822
05:00+2˚nw2394100 0.1 1018105
08:00+2˚nnw3697100 0.6 1019289
11:00+3˚nnw467491 0.0 1020622
14:00+4˚nnw346273 0.0 1020855
17:00+3˚n236969 0.0 102189
20:00+1˚n127436 0.0 102222
30 november, mon
mon3023:00n22770 0.0 102221
02:00−1˚n22790 0.0 102322
05:00−1˚n237913 0.0 102346
08:00−1˚n257640 0.0 1025185
11:00+2˚n4664100 0.0 1025463
14:00+2˚n5861100 0.0 1025677
17:00+1˚n51064100 0.0 1027603
20:00+1˚n61069100 0.0 1028518
1 december, tue
tue123:00n61171100 0.0 1029522
02:00−1˚nnw6127698 0.0 1028482
05:00−1˚nnw7128054 0.0 1028487
08:00−2˚nnw6118128 0.0 1029491
11:00+1˚nnw696743 0.0 1028639
14:00+2˚nnw576461 0.0 1026654
17:00−1˚nnw367449 0.0 1025175
20:00−2˚nnw357725 0.0 1025117